STARLINK-34427

Last updated on Thu Jul 03 2025 00:02:07 GMT+0000 (Coordinated Universal Time)

1 64498U 25133AC 25183.58335648 -.01304630 00000+0 -64487-2 0 9995 2 64498 53.1552 210.7278 0001113 56.7266 340.3533 15.84098944 2723
UTC large
Height (km)
Speed (km/s)
/
Latitude / Longitude
Inclination (degrees)
Orbital Period (minutes)
Azimuth
Elevation
Range (km)
Doppler Factor

Next 0 passes for location: London (51.5072 / 0.1276)

Sorry there are no passes over London.